Location: Hickory_Viewmont
(35.7830°N, 81.3170°W)
Time: 05:32:35
(UTC-04:00)

Daily predictions for brighter satellites

Satellite Brightness Start Highest point End
(mag) Time Altitude Azimuth Time Altitude Azimuth Time Altitude Azimuth
Cosmos 2219 Rocket 2.6 00:00:59 10° NNW 00:06:23 51° WSW 00:06:29 51° WSW
CZ-4B R/B 4.5 00:10:33 10° NE 00:10:33 10° NE 00:10:41 10° NE
Cosmos 1125 Rocket 3.6 00:10:01 76° NNE 00:10:01 76° NNE 00:14:54 10° NNE
SeaSat 1 3.2 00:12:26 44° NE 00:12:26 44° NE 00:16:54 10° N
Cosmos 1980 4.1 00:18:13 10° NNW 00:23:22 51° W 00:23:22 51° W
Lacrosse 4 Rocket 2.8 00:21:30 10° NNW 00:24:39 36° NNE 00:24:39 36° NNE
Cosmos 2237 Rocket 2.9 00:31:07 10° NW 00:36:00 43° W 00:36:00 43° W
Cosmos 372 Rocket 4.4 00:40:24 61° N 00:40:24 61° N 00:44:43 10° NNE
Meteor 2-3 Rocket 3.9 00:41:29 66° NE 00:41:29 66° NE 00:46:32 10° NNE
ALOS 2 3.9 00:48:22 37° NNE 00:48:22 37° NNE 00:51:10 10° N
COSMOS 2455 2.9 00:44:02 10° NNW 00:49:34 74° NW 00:49:34 74° NW
H-2A R/B 4.0 00:47:27 10° NNE 00:49:51 33° NNE 00:49:51 33° NNE
ATLAS 2AS CENTAUR R/B 4.1 00:50:45 14° WSW 00:56:45 39° NW 01:04:13 10° NNE
In-Cosmos 22 Rocket 4.4 00:57:27 66° NW 00:57:27 66° NW 01:02:40 10° N
Cosmos 2074 Rocket 4.3 01:13:11 58° W 01:13:13 58° W 01:19:26 10° N
Cosmos 1610 Rocket 4.4 01:13:49 79° NNW 01:13:49 79° NNW 01:19:34 10° N
Nadezhda 3 Rocket 4.3 01:10:47 10° N 01:16:43 58° ENE 01:16:43 58° ENE
Cosmos 2263 Rocket 3.8 01:19:12 24° ENE 01:19:12 24° ENE 01:22:21 10° NE
ATLAS 3B R/B 2.9 01:11:11 10° NW 01:17:16 57° W 01:17:16 57° W
Cosmos 2251 Rocket 4.1 01:15:07 10° NNW 01:19:20 56° N 01:19:20 56° N
Cosmos 44 Rocket 4.4 01:21:06 41° NW 01:21:06 41° NW 01:25:48 10° NNE
CZ-2C R/B 4.4 01:21:36 35° ENE 01:21:51 35° ENE 01:26:55 10° N
USA 238 DEB 3.7 01:18:08 10° NNW 01:25:11 72° ENE 01:25:50 68° E
USA 238 3.7 01:18:15 10° NNW 01:25:17 72° ENE 01:25:58 67° E
GEOS 3 Rocket 4.4 01:27:38 44° WNW 01:27:38 44° WNW 01:31:16 10° NW
Cosmos 2333 Rocket 4.5 01:23:43 10° WNW 01:25:14 12° W 01:25:14 12° W
SL-16 R/B 3.5 01:24:01 10° NW 01:27:44 31° WNW 01:27:44 31° WNW
Cosmos 1607 4.2 01:31:58 10° NNW 01:38:01 58° ENE 01:38:19 57° ENE
CZ-4C R/B 3.6 01:33:27 10° NNW 01:40:23 49° NE 01:43:31 33° ESE
Cosmos 2154 Rocket 4.0 01:41:41 72° WNW 01:41:41 72° WNW 01:47:44 10° N
Meteor 2-10 Rocket 4.2 01:36:12 10° NNW 01:40:45 52° NW 01:40:45 52° NW
Meteor 1-27 Rocket 4.0 01:39:29 10° N 01:44:47 63° NE 01:44:47 63° NE
CZ-2C R/B 3.0 01:42:02 10° N 01:46:13 58° N 01:46:13 58° N
Cosmos 1943 3.7 01:47:43 10° NNW 01:53:13 52° ENE 01:53:13 52° ENE
FALCON 9 R/B 4.4 01:59:24 10° W 02:03:14 20° W 02:03:14 20° W
Cosmos 2341 Rocket 4.4 02:13:16 51° W 02:13:16 51° W 02:19:28 10° N
NOSS 3-4 (A) 3.5 02:17:55 72° W 02:18:11 74° WNW 02:24:45 10° NNE
NOSS 3-4 (C) 3.5 02:18:01 73° W 02:18:17 74° WNW 02:24:50 10° NNE
SL-08 R/B 4.4 02:18:53 82° E 02:18:53 82° E 02:25:11 10° N
NOSS 3-2 (A) 4.1 02:15:02 10° NNW 02:22:39 76° ENE 02:25:29 44° SE
Cosmos 1959 Rocket 4.4 02:24:23 86° W 02:24:25 86° W 02:30:42 10° N
SL-8 Rocket 4.1 02:30:12 64° W 02:30:16 64° W 02:36:33 10° N
Cosmos 1371 Rocket 4.1 02:37:07 73° N 02:37:07 73° N 02:42:00 10° NNE
Cosmos 2056 Rocket 3.7 02:38:19 66° ENE 02:38:19 66° ENE 02:43:03 10° NNE
Cosmos 2218 Rocket 4.0 02:37:59 67° W 02:38:08 67° W 02:44:26 10° N
BREEZE-M DEB (TANK) 3.9 02:29:15 10° WNW 02:39:46 70° NNE 02:40:42 54° E
Meteor 2-19 Rocket 4.4 02:43:48 72° SE 02:44:17 76° E 02:50:27 10° N
ERS-2 4.3 02:43:00 10° NE 02:44:57 22° ENE 02:44:57 22° ENE
Cosmos 2366 rocket 4.1 02:53:00 57° W 02:53:14 58° W 02:59:20 10° N
Cosmos 1844 Rocket 3.4 02:58:18 40° ESE 02:58:50 41° ESE 03:04:07 10° NE
Meteor 2-8 Rocket 4.2 02:53:53 10° N 02:59:59 81° W 03:00:31 73° SSW
Cosmos 2263 Rocket 3.1 03:00:53 36° WNW 03:01:22 37° WNW 03:06:37 10° N
Cosmos 909 Rocket 4.1 03:01:27 59° WSW 03:02:33 70° WNW 03:09:41 10° NNE
Cosmos 967 Rocket 4.5 03:03:06 63° SSE 03:04:00 72° ESE 03:10:28 10° NNE
SL-27 R/B 4.4 03:01:21 10° N 03:04:27 28° ENE 03:04:27 28° ENE
RESURS DK-1 3.9 03:12:15 29° NW 03:12:15 29° NW 03:15:16 10° N
SL-24 DEB 4.2 03:11:08 10° N 03:15:46 77° E 03:15:46 77° E
Cosmos 1727 Rocket 4.2 03:12:13 10° NNW 03:18:10 49° W 03:18:33 48° WSW
Cosmos 1300 Rocket 3.7 03:18:48 71° NE 03:18:48 71° NE 03:22:49 10° N
COSMOS 2406 3.4 03:14:12 10° NNW 03:19:57 68° ENE 03:22:28 34° SE
Cosmos 2278 Rocket 3.5 03:18:50 25° SE 03:20:32 30° ESE 03:25:23 10° NE
Cosmos 1867 3.9 03:15:22 10° NW 03:19:56 51° W 03:19:56 51° W
Meteor 1-25 Rocket 4.1 03:20:05 65° SW 03:20:43 72° W 03:26:30 10° N
USA 161 4.1 03:23:19 18° ENE 03:23:19 18° ENE 03:25:06 10° NNE
CBERS 1 LM4 rocket 4.5 03:19:01 10° NNE 03:23:53 64° ESE 03:24:23 60° SE
IRS-P3 4.1 03:18:36 10° N 03:23:54 64° WNW 03:24:25 61° WSW
Iridium 4 Rocket 3.8 03:22:05 10° NNW 03:26:21 47° WNW 03:26:21 47° WNW
CZ-4C R/B 3.5 03:22:19 10° NW 03:28:37 35° WSW 03:28:37 35° WSW
USA 234 3.2 03:22:54 10° SE 03:29:26 84° NE 03:36:00 10° NW
Cosmos 1536 Rocket 4.4 03:27:12 10° NNW 03:30:26 38° WNW 03:30:26 38° WNW
SL-08 R/B 3.2 03:32:29 71° SSW 03:32:55 78° WSW 03:37:51 10° NNW
Resurs 1-4 Rocket 3.5 03:29:25 10° NE 03:34:05 31° E 03:36:39 21° SE
Cosmos 1602 4.4 03:34:36 46° E 03:34:42 46° E 03:38:24 10° NNE
ATLAS 2A CENTAUR R/B 3.4 03:38:19 40° SSW 03:40:07 46° S 04:05:51 10° ESE
Cosmos 1452 Rocket 3.5 03:42:56 56° WSW 03:43:49 66° WNW 03:49:03 10° NNE
Cosmos 1934 Rocket 3.9 03:42:15 42° S 03:44:33 87° E 03:50:45 10° N
CENTAUR R/B 3.5 03:37:02 10° NNW 03:44:53 62° NE 03:53:06 10° SE
ARIANE 5 R/B 2.9 03:41:33 10° NNE 03:46:27 55° E 03:48:13 36° SSE
Cosmos 1633 3.6 03:48:47 36° ESE 03:49:19 38° E 03:52:43 10° NNE
NOSS 3-2 (C) 4.5 03:42:46 10° NW 03:49:46 38° WSW 03:51:10 36° SW
AQUA 4.3 03:48:31 10° N 03:53:01 44° WNW 03:53:38 41° W
ADEOS 3.5 03:48:07 10° N 03:53:20 71° WNW 03:54:44 48° SW
Cosmos 1420 Rocket 4.0 03:53:20 44° S 03:55:02 78° ESE 04:00:21 10° NNE
Okean 1-7 Rocket 3.6 03:52:51 10° NNW 03:57:22 61° W 03:57:55 56° SW
Cosmos 1536 3.0 03:57:35 51° SSE 03:58:27 68° E 04:02:30 10° NNE
Okean 1 Rocket 3.7 03:59:23 39° W 03:59:34 39° W 04:03:46 10° N
COSMOS 2487 3.9 03:59:09 10° N 04:02:34 38° ENE 04:05:15 15° SE
SME Rocket 4.2 03:59:15 11° SE 04:02:35 37° ENE 04:06:16 10° N
Cosmos 489 Rocket 4.3 03:56:51 10° NNW 04:03:06 79° WSW 04:07:26 21° S
Cosmos 1461 3.1 04:04:34 47° SSW 04:05:54 78° ESE 04:10:34 10° NNE
Skynet4D Del rocket 4.3 04:06:31 32° S 04:06:31 32° S 04:11:15 10° ESE
UNKNOWN OBJECT B 4.0 04:02:41 10° NNE 04:06:32 38° E 04:08:33 23° SSE
SL-16 R/B 2.7 04:01:55 10° SSE 04:08:07 72° ENE 04:14:20 10° N
Gbstr 26 Del rocket 3.7 04:08:35 31° WNW 04:09:40 37° NW 04:13:12 10° NNE
Okean O Rocket 3.5 04:07:31 10° NE 04:11:04 24° E 04:14:37 10° SSE
Meteor 2-15 Rocket 4.4 04:10:43 10° N 04:16:54 89° ENE 04:22:02 15° S
Meteor 1-19 Rocket 4.2 04:11:07 10° N 04:16:57 84° W 04:21:24 18° S
NOSS 2-2 (D) 3.8 04:16:07 40° WSW 04:17:16 54° NW 04:21:47 10° NNE
Cosmos 1140 Rocket 3.4 04:12:32 10° NNW 04:17:42 87° ENE 04:22:38 11° SSE
Cosmos 1605 Rocket 3.9 04:15:16 30° SSW 04:18:29 72° W 04:24:44 10° N
ERS-2 4.1 04:17:19 10° NNW 04:19:44 17° WNW 04:19:48 17° WNW
GP-B 4.4 04:16:50 10° NNW 04:20:24 24° W 04:20:45 24° W
EO 1 Del DPAF 3.2 04:21:45 27° SSE 04:23:47 88° WSW 04:27:42 10° NNW
Cosmos 1455 Rocket 3.4 04:21:55 23° S 04:24:34 66° E 04:29:00 10° NNE
Cosmos 2123 Rocket 4.1 04:19:25 10° NNW 04:25:39 62° W 04:29:54 21° SSW
Meteor 1-11 Rocket 4.2 04:25:35 29° SW 04:28:16 47° WNW 04:34:01 10° N
Cosmos 1850 Rocket 4.0 04:24:08 10° NNW 04:29:23 85° ENE 04:34:40 10° SSE
Cosmos 1025 Rocket 3.1 04:25:22 10° NNW 04:29:35 56° W 04:31:24 31° SSW
CZ-2D R/B 2.1 04:24:13 10° N 04:29:40 78° WNW 04:33:03 24° SSW
Chunghua 1 4.4 04:28:51 35° W 04:30:18 70° S 04:34:03 10° ESE
Cosmos 1741 Rocket 4.0 04:25:53 10° NNW 04:31:12 85° ENE 04:36:26 10° SSE
OAO 3 Copernicus 4.4 04:29:32 31° SW 04:31:45 59° SSE 04:36:42 10° E
NOSS 2-2 (C) 4.4 04:30:09 27° W 04:31:46 38° NW 04:36:07 10° NNE
Cosmos 1400 Rocket 3.1 04:40:17 31° SW 04:41:44 47° W 04:45:31 10° N
Cosmos 1844 Rocket 4.1 04:39:58 17° W 04:42:50 25° WNW 04:47:28 10° N
Yuri Rocket 4.1 04:43:14 22° WSW 04:46:04 36° S 04:50:23 10° ESE
MOS 1-B 4.4 04:41:06 10° N 04:46:51 64° WNW 04:51:09 18° SSW
APEX 3.0 04:46:28 25° S 04:47:50 52° ESE 04:50:53 10° NNE
Cosmos 1544 Rocket 4.1 04:47:56 24° SW 04:50:08 41° W 04:54:20 10° N
IRS-1D 4.3 04:47:39 10° N 04:52:12 35° WNW 04:55:04 19° WSW
Meteor 1-23 Rocket 4.4 04:49:38 10° NNW 04:55:11 54° W 05:00:38 10° S
Cosmos 2173 Rocket 4.0 04:49:21 10° S 04:55:26 86° E 05:01:37 10° N
USA 129 1.8 04:54:29 20° SSE 04:55:45 74° ENE 04:57:51 10° N
Cosmos 1802 Rocket 4.0 04:56:08 10° S 05:02:17 86° E 05:08:27 10° N
Cosmos 2297 3.8 04:58:40 16° SSW 05:03:10 69° WNW 05:08:50 10° NNE
Cosmos 2278 Rocket 3.1 05:00:42 16° WSW 05:04:28 33° WNW 05:09:35 10° N
Centaur AC-125 3.7 05:03:18 17° SSW 05:04:40 21° S 05:09:41 10° ESE
CZ-4B DEB 4.5 05:00:23 10° NNE 05:05:57 72° ESE 05:11:30 10° S
Cosmos 1315 Rocket 3.5 05:05:41 17° SW 05:08:27 39° WNW 05:12:16 10° N
Centaur D-1AR AC-484.305:11:39SSW05:11:39SSW05:01:21W
CZ-4B R/B 3.4 05:04:58 10° NNE 05:09:31 73° ESE 05:13:57 10° S
ATLAS 5 CENTAUR R/B 2.4 05:04:23 10° NNW 05:10:31 86° WSW 05:17:00 10° SSE
Cosmos 1459 Rocket 4.1 05:05:08 10° SSW 05:11:28 68° W 05:17:45 10° N
USA 234 4.3 05:08:02 10° S 05:12:49 22° WSW 05:17:38 10° WNW
OTV 4 2.7 05:14:30 11° S 05:14:30 11° S 05:14:42 10° S
Resurs 1-4 Rocket 3.2 05:09:18 10° N 05:13:48 29° WNW 05:17:44 13° WSW
Cosmos 2100 Rocket 4.1 05:07:51 10° SSW 05:13:58 60° W 05:20:13 10° N
Meteor 1-12 Rocket 4.3 05:08:20 10° SSW 05:14:14 77° W 05:20:04 10° N
IRS-1C Rocket 4.3 05:10:42 10° N 05:15:51 57° WNW 05:20:58 10° SSW
Cosmos 614 Rocket 4.4 05:11:37 10° NW 05:16:22 39° W 05:21:05 10° S
MOZ.5/SAFIR/RUBIN 5/SL-8 3.8 05:15:42 10° S 05:20:28 83° WSW 05:25:17 10° NNW
BREEZE M DEB (TANK) 4.2 05:08:48 10° NW 05:23:00 72° SW 05:27:00 10° SE
Cosmos 1174 3.9 05:19:35 10° NNW 05:23:03 61° ENE 05:26:04 10° SE
CZ-4B R/B 3.3 05:17:44 10° N 05:23:23 71° WNW 05:28:59 10° SSW
Cosmos 1975 2.9 05:19:44 10° SSW 05:23:40 58° W 05:27:38 10° N
Cosmos 1346 Rocket 3.3 05:19:46 10° N 05:23:49 66° E 05:27:47 10° SSE
ARIANE 5 R/B 4.3 05:22:18 10° NNW 05:25:06 15° WNW 05:27:53 10° W
Cosmos 2082 Rocket 2.3 05:20:12 10° NNW 05:25:57 88° ENE 05:31:39 10° SSE
CZ-3C R/B 3.1 05:26:21 10° S 05:28:00 12° SSE 05:30:22 10° SE
Cosmos 1110 Rocket 4.5 05:24:39 10° SW 05:29:45 46° WNW 05:34:51 10° N
Cosmos 1743 3.6 05:31:27 10° S 05:35:10 51° E 05:38:53 10° NNE
CENTAUR R/B 3.9 05:28:37 10° NW 05:35:16 29° WSW 05:42:04 10° SSW
Okean-O 2.8 05:31:49 10° NNE 05:36:15 76° ESE 05:40:40 10° S
Timation 2 Rocket 4.3 05:31:11 10° NW 05:36:51 41° WSW 05:42:23 10° S
Thor Agena Rocket 3.6 05:32:02 10° S 05:37:09 59° WSW 05:42:15 10° NNW
ADEOS II 2.9 05:33:11 10° NNE 05:38:21 53° E 05:43:29 10° S
Timation 1 Rocket 4.4 05:32:52 10° SSW 05:38:53 82° WNW 05:44:56 10° NNE
Tsikada Rocket 4.3 05:34:23 10° N 05:40:34 76° E 05:46:46 10° S
Cosmos 1825 Rocket 4.3 05:36:27 10° N 05:40:45 58° E 05:45:04 10° SSE
Cosmos 1500 3.3 05:39:49 10° SSW 05:43:38 60° W 05:47:30 10° N
Cosmos 1515 3.7 05:40:58 10° NNW 05:44:45 66° W 05:48:32 10° S
PSLV R/B 4.1 05:41:37 10° SW 05:44:47 39° SSE 05:47:55 10° E
Meteor PRIRODA 4.3 05:41:54 10° NNE 05:45:33 57° E 05:49:08 10° S
BREEZE-M DEB (TANK) 3.7 05:41:38 10° WSW 05:45:43 43° NNW 05:49:12 10° NE
Cosmos 1726 Rocket 4.3 05:41:53 10° S 05:46:13 57° E 05:50:33 10° NNE
ADEOS Rocket 3.8 05:41:39 10° NNE 05:47:02 51° E 05:52:43 10° S
